sat.trackr.live / text

‹ back to catalog

STARLINK-4153

NORAD 53037 · 2022-076BD

PAYLOAD ACTIVE UNKNOWN

§ Identity

Operator
Country
US
Launch date
2022-07-07
Launch site
AFETR
Launch vehicle
Mass (kg)
RCS (m²)

Purposes: comms

External: N2YO · Heavens-Above · Gunter

§ Orbital elements

Epoch: 2026-05-25T02:49:18.643296Z

Period
95.44 min
Inclination
53.2155°
Eccentricity
0.0001810
Mean motion
15.08827765 rev/d
Perigee alt
538.5 km
Apogee alt
541.0 km
Semi-major
6,917.9 km
B*
-1.4632e-4
RAAN
91.0212°
Arg perigee
95.7048°
Mean anomaly
264.4150°
Rev number
21,466

§ Raw data

STARLINK-41531 53037U 22076BD  26145.11757689 -.00002615  00000+0 -14632-3 0  99912 53037  53.2155  91.0212 0001810  95.7048 264.4150 15.08827765214669

JSON: /api/v1/satellites/53037 · /tle

For live sub-satellite position, see the globe view (requires WebGL).

§ Visibility from observer

Set your observer location to see the next 7 days of passes ≥ 10°. The values pass through the URL so the page stays shareable.

No JS? Fill the form by hand. The geolocation button needs JavaScript.